sat.trackr.live / text

‹ back to catalog

HULIANWANG DIGUI-141

NORAD 67439 · 2026-007E

PAYLOAD ACTIVE UNKNOWN

§ Identity

Operator
Country
PRC
Launch date
2026-01-13
Launch site
WSC
Launch vehicle
Mass (kg)
RCS (m²)

External: N2YO · Heavens-Above · Gunter

§ Orbital elements

Epoch: 2026-05-24T18:23:59.656416Z

Period
108.33 min
Inclination
50.0023°
Eccentricity
0.0000879
Mean motion
13.29325712 rev/d
Perigee alt
1,148.6 km
Apogee alt
1,150.0 km
Semi-major
7,527.4 km
B*
6.6596e-5
RAAN
169.7319°
Arg perigee
280.7083°
Mean anomaly
79.3690°
Rev number
1,767

§ Raw data

HULIANWANG DIGUI-1411 67439U 26007E   26144.76666269 -.00000093  00000+0  66596-4 0  99972 67439  50.0023 169.7319 0000879 280.7083  79.3690 13.29325712 17679

JSON: /api/v1/satellites/67439 · /tle

For live sub-satellite position, see the globe view (requires WebGL).

§ Visibility from observer

Set your observer location to see the next 7 days of passes ≥ 10°. The values pass through the URL so the page stays shareable.

No JS? Fill the form by hand. The geolocation button needs JavaScript.